| time (UTC) | temp F | wind direction | speed MPH | gust MPH | rain 1hr in | rain 24hr in | rain mn in | humidity % | barometer mb |
| 20260901222516 | 98 | 150 | 1.0 | 4.0 | 0.00 | 0.00 | 0.00 | 41 | 987.9 |
| 20260901221516 | 98 | 162 | 0.0 | 2.0 | 0.00 | 0.00 | 0.00 | 41 | 987.9 |
| 20260901220516 | 98 | 0.0 | 0.0 | 0.00 | 0.00 | 0.00 | 40 | 987.8 | |
| 20260901215516 | 98 | 154 | 0.0 | 2.0 | 0.00 | 0.00 | 0.00 | 41 | 988.0 |
| 20260901214516 | 98 | 135 | 1.0 | 2.0 | 0.00 | 0.00 | 0.00 | 40 | 988.2 |
| 20260901213516 | 99 | 127 | 0.0 | 2.0 | 0.00 | 0.00 | 0.00 | 39 | 988.2 |
| 20260901212536 | 98 | 75 | 2.0 | 11.0 | 0.00 | 0.00 | 0.00 | 39 | 988.3 |
| 20260901211516 | 98 | 112 | 0.0 | 4.0 | 0.00 | 0.00 | 0.00 | 40 | 988.5 |
| 20260901210516 | 99 | 106 | 0.0 | 4.0 | 0.00 | 0.00 | 0.00 | 40 | 988.6 |
| 20260901205516 | 97 | 80 | 1.0 | 4.0 | 0.00 | 0.00 | 0.00 | 42 | 988.6 |
| 20260901204516 | 97 | 88 | 5.0 | 9.0 | 0.00 | 0.00 | 0.00 | 43 | 988.7 |
| 20260901203516 | 97 | 0.0 | 0.0 | 0.00 | 0.00 | 0.00 | 43 | 988.7 | |
| 20260901202516 | 97 | 0.0 | 0.0 | 0.00 | 0.00 | 0.00 | 42 | 988.9 | |
| 20260901201516 | 98 | 99 | 1.0 | 4.0 | 0.00 | 0.00 | 0.00 | 42 | 989.0 |
| 20260901200516 | 97 | 142 | 0.0 | 1.0 | 0.00 | 0.00 | 0.00 | 42 | 989.2 |
| 20260901195516 | 98 | 78 | 1.0 | 4.0 | 0.00 | 0.00 | 0.00 | 41 | 989.2 |
| 20260901194516 | 99 | 184 | 0.0 | 2.0 | 0.00 | 0.00 | 0.00 | 41 | 989.4 |
| 20260901193516 | 99 | 134 | 0.0 | 1.0 | 0.00 | 0.00 | 0.00 | 41 | 989.4 |
| 20260901192516 | 98 | 0.0 | 4.0 | 0.00 | 0.00 | 0.00 | 41 | 989.6 | |
| 20260901191516 | 98 | 90 | 3.0 | 6.0 | 0.00 | 0.00 | 0.00 | 43 | 989.7 |
| 20260901190516 | 97 | 0.0 | 3.0 | 0.00 | 0.00 | 0.00 | 43 | 989.8 | |
| 20260901185556 | 97 | 81 | 3.0 | 6.0 | 0.00 | 0.00 | 0.00 | 42 | 990.0 |
| 20260901184516 | 99 | 140 | 1.0 | 3.0 | 0.00 | 0.00 | 0.00 | 41 | 990.2 |
| 20260901183516 | 99 | 155 | 0.0 | 2.0 | 0.00 | 0.00 | 0.00 | 42 | 990.4 |
| 20260901182516 | 97 | 73 | 1.0 | 3.0 | 0.00 | 0.00 | 0.00 | 44 | 990.6 |
| 20260901181516 | 97 | 160 | 2.0 | 4.0 | 0.00 | 0.00 | 0.00 | 45 | 990.7 |
| 20260901180516 | 97 | 134 | 1.0 | 5.0 | 0.00 | 0.00 | 0.00 | 45 | 990.8 |
| 20260901175516 | 97 | 160 | 1.0 | 3.0 | 0.00 | 0.00 | 0.00 | 45 | 991.1 |
| 20260901174516 | 97 | 144 | 2.0 | 4.0 | 0.00 | 0.00 | 0.00 | 46 | 991.4 |
| 20260901173516 | 96 | 82 | 1.0 | 3.0 | 0.00 | 0.00 | 0.00 | 46 | 991.3 |
| 20260901172516 | 96 | 137 | 0.0 | 1.0 | 0.00 | 0.00 | 0.00 | 46 | 991.5 |
| 20260901171516 | 96 | 139 | 1.0 | 4.0 | 0.00 | 0.00 | 0.00 | 47 | 991.6 |
| 20260901170516 | 95 | 141 | 0.0 | 1.0 | 0.00 | 0.00 | 0.00 | 48 | 991.7 |
| 20260901165536 | 94 | 66 | 0.0 | 1.0 | 0.00 | 0.00 | 0.00 | 49 | 991.7 |
| 20260901164516 | 94 | 58 | 0.0 | 3.0 | 0.00 | 0.00 | 0.00 | 51 | 991.8 |
| 20260901163516 | 93 | 0.0 | 0.0 | 0.00 | 0.00 | 0.00 | 51 | 992.0 | |
| 20260901162516 | 94 | 78 | 1.0 | 4.0 | 0.00 | 0.00 | 0.00 | 52 | 991.9 |
| 20260901161536 | 93 | 0.0 | 3.0 | 0.00 | 0.00 | 0.00 | 52 | 992.0 | |
| 20260901160516 | 93 | 230 | 1.0 | 2.0 | 0.00 | 0.00 | 0.00 | 53 | 991.9 |
| 20260901155636 | 92 | 0.0 | 0.0 | 0.00 | 0.00 | 0.00 | 53 | 991.9 | |
| 20260901154516 | 93 | 0.0 | 0.0 | 0.00 | 0.00 | 0.00 | 53 | 991.9 | |
| 20260901153516 | 92 | 145 | 1.0 | 2.0 | 0.00 | 0.00 | 0.00 | 54 | 991.9 |
| 20260901152516 | 92 | 0.0 | 0.0 | 0.00 | 0.00 | 0.00 | 54 | 991.8 | |
| 20260901151516 | 90 | 0.0 | 2.0 | 0.00 | 0.00 | 0.00 | 57 | 991.8 | |
| 20260901150516 | 91 | 280 | 2.0 | 4.0 | 0.00 | 0.00 | 0.00 | 57 | 991.9 |
| 20260901145536 | 90 | 0.0 | 4.0 | 0.00 | 0.00 | 0.00 | 58 | 992.0 | |
| 20260901144516 | 89 | 271 | 0.0 | 4.0 | 0.00 | 0.00 | 0.00 | 60 | 992.1 |
| 20260901143516 | 89 | 0.0 | 0.0 | 0.00 | 0.00 | 0.00 | 60 | 992.1 | |
| 20260901142516 | 89 | 0.0 | 1.0 | 0.00 | 0.00 | 0.00 | 62 | 992.1 | |
| 20260901141516 | 88 | 0.0 | 0.0 | 0.00 | 0.00 | 0.00 | 62 | 992.0 | |
| 20260901140516 | 87 | 0.0 | 0.0 | 0.00 | 0.00 | 0.00 | 64 | 992.0 | |
| 20260901135516 | 86 | 0.0 | 0.0 | 0.00 | 0.00 | 0.00 | 66 | 992.1 | |
| 20260901134516 | 85 | 0.0 | 0.0 | 0.00 | 0.00 | 0.00 | 68 | 992.1 | |
| 20260901133516 | 84 | 0.0 | 0.0 | 0.00 | 0.00 | 0.00 | 71 | 992.1 | |
| 20260901132516 | 82 | 0.0 | 0.0 | 0.00 | 0.00 | 0.00 | 72 | 992.1 | |
| 20260901131516 | 82 | 0.0 | 0.0 | 0.00 | 0.00 | 0.00 | 73 | 992.1 | |
| 20260901130516 | 81 | 0.0 | 0.0 | 0.00 | 0.00 | 0.00 | 75 | 992.0 | |
| 20260901125516 | 80 | 0.0 | 0.0 | 0.00 | 0.00 | 0.00 | 75 | 991.8 | |
| 20260901124516 | 80 | 0.0 | 0.0 | 0.00 | 0.00 | 0.00 | 75 | 991.6 | |
| 20260901123516 | 79 | 0.0 | 0.0 | 0.00 | 0.00 | 0.00 | 77 | 991.6 | |
| 20260901122516 | 79 | 0.0 | 0.0 | 0.00 | 0.00 | 0.00 | 78 | 991.4 | |
| 20260901121516 | 78 | 0.0 | 0.0 | 0.00 | 0.00 | 0.00 | 78 | 991.1 | |
| 20260901120516 | 78 | 0.0 | 0.0 | 0.00 | 0.00 | 0.00 | 77 | 991.0 | |
| 20260901115536 | 78 | 0.0 | 0.0 | 0.00 | 0.00 | 0.00 | 77 | 991.0 | |
| 20260901114516 | 78 | 0.0 | 0.0 | 0.00 | 0.00 | 0.00 | 78 | 991.0 | |
| 20260901113516 | 78 | 0.0 | 0.0 | 0.00 | 0.00 | 0.00 | 77 | 990.9 | |
| 20260901112516 | 78 | 0.0 | 0.0 | 0.00 | 0.00 | 0.00 | 76 | 990.9 | |
| 20260901111516 | 78 | 0.0 | 0.0 | 0.00 | 0.00 | 0.00 | 75 | 990.7 | |
| 20260901110516 | 78 | 0.0 | 0.0 | 0.00 | 0.00 | 0.00 | 75 | 990.6 | |
| 20260901105536 | 79 | 0.0 | 0.0 | 0.00 | 0.00 | 0.00 | 74 | 990.6 | |
| 20260901104516 | 79 | 0.0 | 0.0 | 0.00 | 0.00 | 0.00 | 72 | 990.6 | |
| 20260901103516 | 79 | 0.0 | 0.0 | 0.00 | 0.00 | 0.00 | 71 | 990.6 | |
| 20260901102536 | 80 | 0.0 | 0.0 | 0.00 | 0.00 | 0.00 | 71 | 990.7 | |
| 20260901101516 | 80 | 0.0 | 0.0 | 0.00 | 0.00 | 0.00 | 70 | 990.8 | |
| 20260901100516 | 81 | 0.0 | 0.0 | 0.00 | 0.00 | 0.00 | 68 | 990.7 | |
| 20260901095516 | 81 | 0.0 | 0.0 | 0.00 | 0.00 | 0.00 | 67 | 990.8 | |
| 20260901094516 | 82 | 0.0 | 0.0 | 0.00 | 0.00 | 0.00 | 66 | 990.8 | |
| 20260901093516 | 82 | 0.0 | 0.0 | 0.00 | 0.00 | 0.00 | 65 | 990.9 | |
| 20260901092536 | 83 | 0.0 | 2.0 | 0.00 | 0.00 | 0.00 | 64 | 990.8 | |
| 20260901091516 | 83 | 0.0 | 0.0 | 0.00 | 0.00 | 0.00 | 64 | 990.8 | |
| 20260901090536 | 83 | 0.0 | 0.0 | 0.00 | 0.00 | 0.00 | 63 | 990.6 | |
| 20260901085516 | 84 | 0.0 | 0.0 | 0.00 | 0.00 | 0.00 | 63 | 990.6 | |
| 20260901084536 | 83 | 184 | 0.0 | 1.0 | 0.00 | 0.00 | 0.00 | 63 | 990.5 |
| 20260901083516 | 83 | 0.0 | 0.0 | 0.00 | 0.00 | 0.00 | 63 | 990.4 | |
| 20260901082536 | 82 | 0.0 | 0.0 | 0.00 | 0.00 | 0.00 | 63 | 990.4 | |
| 20260901081516 | 82 | 0.0 | 0.0 | 0.00 | 0.00 | 0.00 | 63 | 990.5 | |
| 20260901080516 | 82 | 0.0 | 0.0 | 0.00 | 0.00 | 0.00 | 63 | 990.5 | |
| 20260901075516 | 82 | 0.0 | 0.0 | 0.00 | 0.00 | 0.00 | 64 | 990.6 | |
| 20260901074516 | 82 | 0.0 | 0.0 | 0.00 | 0.00 | 0.00 | 63 | 990.6 | |
| 20260901073536 | 83 | 0.0 | 0.0 | 0.00 | 0.00 | 0.00 | 63 | 990.5 | |
| 20260901072516 | 83 | 0.0 | 0.0 | 0.00 | 0.00 | 0.00 | 62 | 990.5 | |
| 20260901071516 | 83 | 0.0 | 0.0 | 0.00 | 0.00 | 0.00 | 62 | 990.5 | |
| 20260901070536 | 84 | 0.0 | 0.0 | 0.00 | 0.00 | 0.00 | 61 | 990.4 | |
| 20260901065516 | 84 | 0.0 | 0.0 | 0.00 | 0.00 | 0.00 | 60 | 990.4 | |
| 20260901064516 | 84 | 0.0 | 0.0 | 0.00 | 0.00 | 0.00 | 59 | 990.4 | |
| 20260901063516 | 84 | 0.0 | 0.0 | 0.00 | 0.00 | 0.00 | 58 | 990.3 | |
| 20260901062516 | 85 | 67 | 0.0 | 3.0 | 0.00 | 0.00 | 0.00 | 58 | 990.2 |
| 20260901061536 | 85 | 0.0 | 0.0 | 0.00 | 0.00 | 0.00 | 57 | 990.2 | |
| 20260901060516 | 85 | 0.0 | 0.0 | 0.00 | 0.00 | 0.00 | 57 | 990.1 | |
| 20260901055516 | 85 | 0.0 | 0.0 | 0.00 | 0.00 | 0.00 | 56 | 990.0 | |
| 20260901054516 | 85 | 72 | 0.0 | 2.0 | 0.00 | 0.00 | 0.00 | 56 | 989.8 |
| 20260901053516 | 85 | 0.0 | 0.0 | 0.00 | 0.00 | 0.00 | 56 | 989.9 | |
| 20260901052516 | 84 | 0.0 | 0.0 | 0.00 | 0.00 | 0.00 | 57 | 989.7 | |
| 20260901051516 | 84 | 0.0 | 0.0 | 0.00 | 0.00 | 0.00 | 58 | 989.7 | |
| 20260901050516 | 84 | 0.0 | 0.0 | 0.00 | 0.00 | 0.00 | 58 | 989.6 | |
| 20260901045516 | 85 | 0.0 | 0.0 | 0.00 | 0.00 | 0.00 | 57 | 989.6 | |
| 20260901044516 | 85 | 0.0 | 0.0 | 0.00 | 0.00 | 0.00 | 56 | 989.5 | |
| 20260901043516 | 84 | 84 | 0.0 | 4.0 | 0.00 | 0.00 | 0.00 | 56 | 989.5 |
| 20260901042516 | 85 | 0.0 | 0.0 | 0.00 | 0.00 | 0.00 | 53 | 989.3 | |
| 20260901041556 | 85 | 0.0 | 0.0 | 0.00 | 0.00 | 0.00 | 52 | 989.3 | |
| 20260901040516 | 86 | 0.0 | 0.0 | 0.00 | 0.00 | 0.00 | 52 | 989.3 | |
| 20260901035536 | 87 | 0.0 | 0.0 | 0.00 | 0.00 | 0.00 | 49 | 989.3 | |
| 20260901034516 | 87 | 0.0 | 0.0 | 0.00 | 0.00 | 0.00 | 49 | 989.3 | |
| 20260901033516 | 87 | 0.0 | 0.0 | 0.00 | 0.00 | 0.00 | 48 | 989.3 | |
| 20260901032516 | 87 | 0.0 | 0.0 | 0.00 | 0.00 | 0.00 | 48 | 989.3 | |
| 20260901031516 | 87 | 0.0 | 0.0 | 0.00 | 0.00 | 0.00 | 47 | 989.2 | |
| 20260901030516 | 88 | 0.0 | 0.0 | 0.00 | 0.00 | 0.00 | 46 | 989.2 | |
| 20260901025516 | 88 | 0.0 | 0.0 | 0.00 | 0.00 | 0.00 | 45 | 989.0 | |
| 20260901024536 | 89 | 0.0 | 0.0 | 0.00 | 0.00 | 0.00 | 45 | 988.9 | |
| 20260901023516 | 89 | 0.0 | 0.0 | 0.00 | 0.00 | 0.00 | 44 | 988.7 | |
| 20260901022516 | 89 | 0.0 | 0.0 | 0.00 | 0.00 | 0.00 | 43 | 988.6 | |
| 20260901021516 | 89 | 0.0 | 0.0 | 0.00 | 0.00 | 0.00 | 44 | 988.5 | |
| 20260901020516 | 90 | 0.0 | 0.0 | 0.00 | 0.00 | 0.00 | 43 | 988.5 | |
| 20260901015516 | 91 | 0.0 | 0.0 | 0.00 | 0.00 | 0.00 | 43 | 988.4 | |
| 20260901014516 | 92 | 0.0 | 0.0 | 0.00 | 0.00 | 0.00 | 40 | 988.3 | |
| 20260901013516 | 93 | 0.0 | 0.0 | 0.00 | 0.00 | 0.00 | 40 | 988.3 | |
| 20260901012536 | 93 | 0.0 | 0.0 | 0.00 | 0.00 | 0.00 | 39 | 988.2 | |
| 20260901011516 | 94 | 0.0 | 0.0 | 0.00 | 0.00 | 0.00 | 38 | 988.2 | |
| 20260901010516 | 95 | 0.0 | 0.0 | 0.00 | 0.00 | 0.00 | 37 | 988.1 | |
| 20260901005516 | 96 | 175 | 0.0 | 1.0 | 0.00 | 0.00 | 0.00 | 36 | 988.1 |
| 20260901004516 | 96 | 151 | 0.0 | 1.0 | 0.00 | 0.00 | 0.00 | 35 | 988.0 |
| 20260901003516 | 97 | 0.0 | 0.0 | 0.00 | 0.00 | 0.00 | 34 | 988.0 | |
| 20260901002516 | 98 | 0.0 | 0.0 | 0.00 | 0.00 | 0.00 | 34 | 988.0 | |
| 20260901001516 | 98 | 77 | 0.0 | 1.0 | 0.00 | 0.00 | 0.00 | 34 | 988.0 |
| 20260901000536 | 99 | 160 | 1.0 | 2.0 | 0.00 | 0.00 | 0.00 | 33 | 988.0 |
| 20260831235536 | 98 | 164 | 1.0 | 2.0 | 0.00 | 0.00 | 0.00 | 32 | 987.9 |
| 20260831234516 | 99 | 133 | 0.0 | 1.0 | 0.00 | 0.00 | 0.00 | 32 | 988.1 |
| 20260831233637 | 99 | 90 | 1.0 | 4.0 | 0.00 | 0.00 | 0.00 | 32 | 988.1 |
| 20260831232536 | 99 | 87 | 1.0 | 4.0 | 0.00 | 0.00 | 0.00 | 32 | 988.0 |
| 20260831231536 | 99 | 108 | 3.0 | 8.0 | 0.00 | 0.00 | 0.00 | 31 | 988.0 |
| 20260831230516 | 99 | 115 | 1.0 | 3.0 | 0.00 | 0.00 | 0.00 | 31 | 988.0 |
| 20260831225516 | 100 | 130 | 2.0 | 4.0 | 0.00 | 0.00 | 0.00 | 31 | 988.1 |
| 20260831224516 | 99 | 140 | 0.0 | 3.0 | 0.00 | 0.00 | 0.00 | 32 | 988.1 |
| 20260831223516 | 99 | 0.0 | 3.0 | 0.00 | 0.00 | 0.00 | 32 | 988.2 |